QPF
0.00 0.00 0.00 0.00 0.01 0.01 0.01 0.01 0.02 0.03 0.03 0.03 0.04 0.04 0.05 0.05 0.06 0.06 0.06 0.07 0.07 0.06 0.05 0.04 0.04 0.03 0.03 0.03 0.03 0.03 0.03 0.03 0.03 0.04 0.04 0.05 0.06 0.07
0.00 0.00 0.00 0.00 0.00 0.00 0.00 0.01 0.01 0.02 0.03 0.03 0.03 0.04 0.04 0.05 0.05 0.04 0.03 0.04 0.04 0.04 0.03 0.02 0.02 0.02 0.02 0.02 0.02 0.02 0.03 0.03 0.03 0.03 0.04 0.05 0.05 0.05
0.00 0.00 0.00 0.00 0.00 0.00 0.01 0.01 0.01 0.01 0.01 0.01 0.01 0.02 0.02 0.03 0.03 0.02 0.02 0.02 0.01 0.01 0.01 0.01 0.01 0.01 0.01 0.01 0.01 0.01 0.01 0.01 0.01 0.01 0.02 0.02 0.02 0.03
0.00 0.00 0.00 0.00 0.00 0.00 0.00 0.01 0.01 0.01 0.01 0.01 0.01 0.00 0.01 0.01 0.01 0.01 0.01 0.01 0.01 0.00 0.00 0.00 0.00 0.00 0.00 0.00 0.00 0.01 0.01 0.01 0.01 0.01 0.01 0.01 0.01 0.01
0.00 0.00 0.00 0.00 0.00 0.00 0.00 0.00 0.00 0.00 0.00 0.00 0.00 0.00 0.00 0.00 0.00 0.00 0.00 0.00 0.00 0.00 0.00 0.00 0.00 0.00 0.00 0.00 0.00 0.00 0.00 0.00 0.00 0.00 0.00 0.00 0.01 0.01
0.00 0.00 0.00 0.00 0.00 0.00 0.00 0.00 0.00 0.00 0.00 0.00 0.00 0.00 0.00 0.00 0.00 0.00 0.00 0.00 0.00 0.00 0.00 0.00 0.00 0.00 0.00 0.00 0.00 0.00 0.00 0.00 0.00 0.00 0.00 0.00 0.00 0.00
0.00 0.00 0.00 0.00 0.00 0.00 0.00 0.00 0.00 0.00 0.00 0.00 0.00 0.00 0.00 0.00 0.00 0.00 0.00 0.00 0.00 0.00 0.00 0.00 0.00 0.00 0.00 0.00 0.00 0.00 0.00 0.00 0.00 0.00 0.00 0.00 0.00 0.00
0.00 0.00 0.00 0.00 0.00 0.00 0.00 0.00 0.00 0.00 0.00 0.00 0.00 0.00 0.00 0.00 0.00 0.00 0.00 0.00 0.00 0.00 0.00 0.00 0.00 0.00 0.00 0.00 0.00 0.00 0.00 0.00 0.00 0.00 0.00 0.00 0.00 0.00
0.00 0.00 0.00 0.00 0.00 0.00 0.00 0.00 0.00 0.00 0.00 0.00 0.00 0.00 0.00 0.00 0.00 0.00 0.00 0.00 0.00 0.00 0.00 0.00 0.00 0.00 0.00 0.00 0.00 0.00 0.00 0.00 0.00 0.00 0.00 0.00 0.00 0.00
0.00 0.00 0.00 0.00 0.00 0.00 0.00 0.00 0.00 0.00 0.00 0.00 0.00 0.00 0.00 0.00 0.01 0.01 0.00 0.00 0.00 0.00 0.01 0.01 0.00 0.00 0.00 0.00 0.00 0.00 0.00 0.00 0.00 0.00 0.00 0.00 0.00 0.00
0.00 0.00 0.00 0.00 0.00 0.00 0.00 0.00 0.00 0.00 0.00 0.00 0.00 0.00 0.00 0.01 0.01 0.00 0.00 0.00 0.01 0.00 0.00 0.00 0.00 0.00 0.00 0.00 0.00 0.00 0.00 0.00 0.00 0.00 0.00 0.00 0.01 0.01
0.00 0.00 0.00 0.00 0.00 0.00 0.00 0.00 0.00 0.00 0.00 0.00 0.00 0.01 0.01 0.01 0.01 0.01 0.00 0.00 0.00 0.00 0.00 0.00 0.00 0.00 0.00 0.00 0.00 0.00 0.00 0.00 0.00 0.00 0.00 0.01 0.01 0.01
0.00 0.00 0.00 0.00 0.00 0.00 0.00 0.00 0.00 0.00 0.00 0.01 0.00 0.00 0.01 0.01 0.01 0.01 0.00 0.00 0.00 0.00 0.00 0.00 0.00 0.00 0.00 0.00 0.00 0.00 0.00 0.00 0.00 0.00 0.00 0.01 0.01 0.01
0.00 0.00 0.00 0.00 0.00 0.00 0.00 0.00 0.00 0.00 0.00 0.01 0.01 0.01 0.01 0.00 0.00 0.00 0.00 0.00 0.00 0.00 0.00 0.00 0.00 0.00 0.00 0.00 0.00 0.00 0.00 0.00 0.00 0.00 0.01 0.01 0.01 0.01
0.00 0.00 0.00 0.00 0.00 0.00 0.00 0.00 0.00 0.00 0.00 0.00 0.00 0.00 0.00 0.00 0.00 0.00 0.00 0.00 0.00 0.00 0.00 0.00 0.00 0.00 0.00 0.00 0.00 0.00 0.00 0.00 0.00 0.01 0.01 0.01 0.01 0.01
0.00 0.00 0.00 0.00 0.00 0.00 0.00 0.00 0.00 0.00 0.00 0.00 0.00 0.00 0.00 0.00 0.00 0.00 0.00 0.00 0.00 0.00 0.00 0.00 0.00 0.00 0.00 0.00 0.00 0.00 0.00 0.00 0.00 0.00 0.01 0.01 0.01 0.01
0.00 0.00 0.00 0.00 0.00 0.00 0.00 0.00 0.00 0.00 0.00 0.00 0.00 0.00 0.00 0.00 0.00 0.00 0.00 0.00 0.00 0.00 0.00 0.00 0.00 0.00 0.00 0.00 0.00 0.00 0.00 0.00 0.00 0.00 0.00 0.01 0.01 0.01
0.00 0.00 0.00 0.00 0.00 0.00 0.00 0.00 0.00 0.00 0.00 0.00 0.00 0.00 0.00 0.00 0.00 0.00 0.00 0.00 0.00 0.00 0.00 0.00 0.00 0.00 0.00 0.00 0.00 0.00 0.00 0.00 0.00 0.01 0.00 0.00 0.01 0.01
0.00 0.00 0.00 0.00 0.00 0.00 0.00 0.00 0.00 0.00 0.00 0.00 0.00 0.00 0.00 0.00 0.00 0.00 0.00 0.00 0.00 0.00 0.00 0.00 0.00 0.00 0.00 0.00 0.00 0.00 0.00 0.00 0.00 0.01 0.01 0.00 0.01 0.01
0.00 0.00 0.00 0.00 0.00 0.00 0.00 0.00 0.00 0.00 0.00 0.00 0.00 0.00 0.00 0.00 0.00 0.00 0.00 0.00 0.00 0.00 0.00 0.00 0.00 0.00 0.00 0.00 0.00 0.00 0.00 0.00 0.00 0.00 0.00 0.00 0.00 0.00
0.00 0.00 0.00 0.00 0.00 0.00 0.00 0.00 0.00 0.00 0.00 0.00 0.00 0.00 0.00 0.00 0.00 0.00 0.00 0.00 0.00 0.00 0.00 0.00 0.00 0.00 0.00 0.00 0.00 0.00 0.00 0.00 0.00 0.00 0.00 0.00 0.00 0.00
0.00 0.00 0.00 0.00 0.00 0.00 0.00 0.00 0.00 0.00 0.00 0.00 0.00 0.00 0.00 0.00 0.00 0.00 0.00 0.00 0.00 0.00 0.00 0.00 0.00 0.00 0.00 0.00 0.00 0.00 0.00 0.00 0.00 0.00 0.00 0.00 0.00 0.00
0.00 0.00 0.00 0.00 0.00 0.00 0.00 0.00 0.00 0.00 0.00 0.00 0.00 0.00 0.00 0.00 0.00 0.00 0.00 0.00 0.00 0.00 0.00 0.00 0.00 0.00 0.00 0.00 0.00 0.00 0.00 0.00 0.00 0.00 0.00 0.00 0.00 0.00
MSLP
1024.11 1024.27 1024.43 1024.57 1024.71 1024.82 1024.89 1024.92 1024.91 1024.84 1024.71 1024.54 1024.32 1024.05 1023.74 1023.40 1023.03 1022.65 1022.26 1021.88 1021.51 1021.16 1020.82 1020.49 1020.17 1019.86 1019.54 1019.23 1018.93 1018.64 1018.36 1018.12 1017.92 1017.75 1017.62 1017.51 1017.42 1017.34
1024.74 1024.87 1025.00 1025.11 1025.20 1025.26 1025.29 1025.28 1025.23 1025.14 1025.00 1024.82 1024.58 1024.29 1023.96 1023.58 1023.16 1022.72 1022.26 1021.81 1021.36 1020.94 1020.55 1020.18 1019.84 1019.51 1019.20 1018.89 1018.59 1018.29 1018.00 1017.74 1017.49 1017.28 1017.09 1016.93 1016.81 1016.70
1025.20 1025.31 1025.40 1025.48 1025.52 1025.55 1025.54 1025.50 1025.43 1025.33 1025.19 1025.00 1024.76 1024.47 1024.12 1023.72 1023.27 1022.77 1022.26 1021.75 1021.24 1020.77 1020.33 1019.93 1019.57 1019.23 1018.92 1018.62 1018.32 1018.01 1017.71 1017.42 1017.13 1016.86 1016.61 1016.40 1016.23 1016.09
1025.52 1025.59 1025.64 1025.67 1025.68 1025.66 1025.62 1025.57 1025.49 1025.38 1025.25 1025.08 1024.85 1024.57 1024.23 1023.82 1023.35 1022.83 1022.28 1021.72 1021.17 1020.66 1020.18 1019.76 1019.38 1019.03 1018.72 1018.42 1018.12 1017.81 1017.49 1017.17 1016.84 1016.53 1016.23 1015.97 1015.75 1015.58
1025.71 1025.73 1025.74 1025.72 1025.68 1025.63 1025.56 1025.49 1025.40 1025.30 1025.18 1025.03 1024.83 1024.58 1024.25 1023.86 1023.39 1022.87 1022.31 1021.74 1021.16 1020.62 1020.12 1019.67 1019.28 1018.92 1018.60 1018.29 1017.99 1017.67 1017.34 1016.99 1016.64 1016.28 1015.95 1015.65 1015.39 1015.20
1025.82 1025.79 1025.73 1025.66 1025.58 1025.49 1025.39 1025.29 1025.19 1025.10 1024.99 1024.86 1024.70 1024.48 1024.19 1023.83 1023.39 1022.90 1022.35 1021.78 1021.20 1020.65 1020.13 1019.67 1019.25 1018.88 1018.54 1018.22 1017.90 1017.57 1017.23 1016.86 1016.48 1016.11 1015.74 1015.41 1015.14 1014.92
1025.88 1025.79 1025.68 1025.56 1025.42 1025.28 1025.14 1025.02 1024.90 1024.80 1024.69 1024.59 1024.45 1024.27 1024.03 1023.71 1023.33 1022.87 1022.37 1021.82 1021.26 1020.72 1020.20 1019.72 1019.29 1018.89 1018.53 1018.19 1017.85 1017.50 1017.13 1016.75 1016.35 1015.96 1015.58 1015.23 1014.94 1014.70
1025.92 1025.78 1025.62 1025.44 1025.25 1025.06 1024.88 1024.71 1024.56 1024.44 1024.33 1024.23 1024.12 1023.97 1023.77 1023.52 1023.19 1022.79 1022.33 1021.83 1021.31 1020.79 1020.27 1019.79 1019.34 1018.93 1018.54 1018.17 1017.80 1017.42 1017.03 1016.63 1016.22 1015.81 1015.42 1015.06 1014.75 1014.50
1025.97 1025.78 1025.57 1025.35 1025.11 1024.87 1024.63 1024.42 1024.23 1024.07 1023.95 1023.84 1023.73 1023.61 1023.45 1023.24 1022.97 1022.63 1022.24 1021.79 1021.31 1020.82 1020.33 1019.85 1019.40 1018.97 1018.55 1018.15 1017.75 1017.35 1016.93 1016.51 1016.09 1015.66 1015.26 1014.89 1014.56 1014.29
1026.01 1025.80 1025.55 1025.29 1025.01 1024.72 1024.44 1024.18 1023.95 1023.75 1023.59 1023.46 1023.34 1023.23 1023.09 1022.91 1022.69 1022.41 1022.07 1021.68 1021.25 1020.79 1020.33 1019.87 1019.42 1018.98 1018.56 1018.13 1017.71 1017.28 1016.85 1016.41 1015.96 1015.53 1015.11 1014.72 1014.37 1014.08
1026.07 1025.83 1025.57 1025.28 1024.97 1024.65 1024.33 1024.03 1023.75 1023.51 1023.31 1023.14 1023.00 1022.87 1022.74 1022.57 1022.37 1022.12 1021.83 1021.48 1021.10 1020.69 1020.26 1019.83 1019.40 1018.97 1018.55 1018.12 1017.69 1017.25 1016.81 1016.35 1015.90 1015.45 1015.01 1014.60 1014.23 1013.91
1026.12 1025.88 1025.62 1025.32 1025.00 1024.66 1024.31 1023.97 1023.66 1023.38 1023.13 1022.93 1022.75 1022.59 1022.43 1022.26 1022.05 1021.82 1021.54 1021.23 1020.88 1020.51 1020.12 1019.73 1019.33 1018.93 1018.52 1018.12 1017.70 1017.27 1016.83 1016.37 1015.92 1015.46 1015.02 1014.60 1014.21 1013.86
1026.17 1025.95 1025.69 1025.40 1025.07 1024.73 1024.37 1024.02 1023.68 1023.37 1023.09 1022.84 1022.62 1022.41 1022.21 1022.00 1021.77 1021.52 1021.24 1020.94 1020.61 1020.27 1019.92 1019.56 1019.21 1018.85 1018.49 1018.12 1017.74 1017.34 1016.92 1016.49 1016.05 1015.60 1015.16 1014.74 1014.34 1013.97
1026.23 1026.02 1025.78 1025.50 1025.20 1024.87 1024.52 1024.17 1023.82 1023.49 1023.18 1022.89 1022.62 1022.36 1022.11 1021.84 1021.57 1021.27 1020.97 1020.65 1020.32 1020.00 1019.68 1019.36 1019.06 1018.75 1018.45 1018.13 1017.80 1017.45 1017.08 1016.70 1016.29 1015.87 1015.46 1015.04 1014.65 1014.27
1026.30 1026.11 1025.89 1025.64 1025.36 1025.05 1024.73 1024.39 1024.06 1023.72 1023.40 1023.08 1022.77 1022.45 1022.13 1021.80 1021.46 1021.11 1020.75 1020.40 1020.06 1019.73 1019.43 1019.14 1018.88 1018.63 1018.38 1018.13 1017.87 1017.59 1017.28 1016.95 1016.60 1016.23 1015.85 1015.47 1015.09 1014.73
1026.38 1026.21 1026.01 1025.79 1025.55 1025.28 1024.99 1024.68 1024.37 1024.05 1023.72 1023.38 1023.03 1022.66 1022.28 1021.88 1021.46 1021.04 1020.63 1020.22 1019.85 1019.50 1019.20 1018.93 1018.70 1018.49 1018.30 1018.11 1017.92 1017.70 1017.47 1017.21 1016.92 1016.62 1016.29 1015.96 1015.62 1015.27
1026.48 1026.33 1026.16 1025.97 1025.76 1025.53 1025.28 1025.01 1024.73 1024.43 1024.11 1023.76 1023.38 1022.98 1022.53 1022.07 1021.58 1021.09 1020.61 1020.14 1019.72 1019.34 1019.02 1018.76 1018.54 1018.36 1018.20 1018.06 1017.92 1017.77 1017.59 1017.40 1017.18 1016.94 1016.68 1016.41 1016.12 1015.81
1026.59 1026.46 1026.32 1026.16 1025.99 1025.80 1025.59 1025.37 1025.12 1024.84 1024.53 1024.18 1023.79 1023.35 1022.86 1022.34 1021.79 1021.23 1020.68 1020.16 1019.69 1019.27 1018.92 1018.64 1018.41 1018.23 1018.09 1017.98 1017.87 1017.75 1017.62 1017.48 1017.32 1017.14 1016.95 1016.74 1016.50 1016.25
1026.72 1026.62 1026.50 1026.38 1026.24 1026.08 1025.91 1025.72 1025.50 1025.25 1024.95 1024.61 1024.20 1023.74 1023.22 1022.65 1022.05 1021.44 1020.84 1020.26 1019.74 1019.28 1018.89 1018.58 1018.33 1018.14 1017.99 1017.87 1017.76 1017.66 1017.56 1017.44 1017.32 1017.19 1017.05 1016.89 1016.72 1016.52
1026.87 1026.79 1026.71 1026.61 1026.50 1026.37 1026.23 1026.06 1025.86 1025.62 1025.33 1024.98 1024.57 1024.09 1023.54 1022.95 1022.32 1021.67 1021.03 1020.42 1019.86 1019.36 1018.94 1018.59 1018.31 1018.09 1017.91 1017.77 1017.64 1017.53 1017.42 1017.31 1017.20 1017.10 1016.99 1016.87 1016.75 1016.60
1027.03 1026.99 1026.93 1026.85 1026.76 1026.65 1026.52 1026.36 1026.16 1025.93 1025.63 1025.28 1024.85 1024.36 1023.80 1023.18 1022.54 1021.87 1021.21 1020.58 1020.00 1019.49 1019.04 1018.66 1018.35 1018.09 1017.87 1017.69 1017.53 1017.38 1017.25 1017.12 1017.01 1016.90 1016.81 1016.72 1016.63 1016.52
1027.21 1027.19 1027.15 1027.09 1027.01 1026.90 1026.77 1026.60 1026.39 1026.14 1025.83 1025.46 1025.02 1024.51 1023.94 1023.32 1022.67 1022.01 1021.35 1020.72 1020.15 1019.63 1019.17 1018.78 1018.44 1018.15 1017.90 1017.67 1017.47 1017.28 1017.10 1016.94 1016.80 1016.68 1016.58 1016.50 1016.43 1016.35
1027.40 1027.40 1027.37 1027.31 1027.23 1027.11 1026.96 1026.77 1026.53 1026.25 1025.92 1025.52 1025.06 1024.53 1023.96 1023.34 1022.70 1022.05 1021.42 1020.81 1020.25 1019.75 1019.30 1018.91 1018.57 1018.26 1017.98 1017.72 1017.48 1017.24 1017.03 1016.83 1016.65 1016.50 1016.39 1016.29 1016.22 1016.15
Thickness
5577 5574 5572 5569 5567 5565 5562 5560 5559 5558 5555 5551 5550 5550 5549 5549 5548 5547 5547 5545 5544 5542 5541 5540 5539 5537 5536 5534 5533 5532 5530 5528 5527 5525 5524 5521 5519 5518
5563 5560 5557 5554 5552 5549 5546 5544 5542 5540 5537 5535 5533 5533 5532 5532 5532 5531 5530 5530 5528 5527 5526 5526 5525 5523 5522 5521 5519 5518 5516 5515 5513 5512 5510 5507 5505 5503
5549 5546 5543 5540 5536 5533 5531 5528 5526 5523 5522 5519 5518 5518 5518 5517 5517 5516 5516 5515 5514 5513 5512 5512 5511 5510 5509 5508 5506 5505 5504 5502 5500 5499 5497 5495 5493 5491
5534 5532 5529 5526 5522 5519 5517 5514 5511 5508 5506 5504 5504 5503 5503 5503 5502 5501 5501 5500 5499 5499 5499 5499 5498 5498 5497 5496 5495 5494 5493 5491 5490 5488 5486 5485 5483 5481
5522 5519 5516 5513 5510 5507 5504 5501 5498 5495 5491 5489 5488 5487 5487 5487 5486 5487 5487 5486 5486 5487 5486 5486 5485 5485 5485 5485 5485 5484 5483 5482 5481 5479 5476 5474 5472 5470
5510 5508 5505 5503 5500 5497 5493 5490 5487 5484 5481 5478 5476 5475 5474 5473 5472 5472 5474 5474 5474 5475 5475 5475 5475 5475 5475 5476 5476 5475 5473 5472 5471 5469 5467 5465 5463 5461
5499 5497 5495 5493 5490 5487 5484 5481 5478 5475 5472 5470 5468 5465 5465 5464 5462 5460 5461 5462 5465 5464 5464 5466 5466 5467 5467 5467 5467 5466 5465 5464 5462 5460 5459 5457 5454 5452
5489 5488 5486 5484 5481 5479 5476 5474 5471 5468 5465 5462 5461 5458 5458 5456 5454 5453 5453 5454 5457 5457 5455 5458 5459 5460 5460 5460 5459 5458 5457 5456 5454 5452 5451 5449 5446 5444
5480 5479 5478 5476 5474 5472 5470 5469 5466 5464 5461 5457 5456 5455 5454 5453 5450 5450 5449 5448 5449 5450 5448 5453 5453 5454 5455 5454 5453 5452 5450 5449 5447 5446 5444 5442 5440 5438
5473 5472 5471 5470 5468 5466 5465 5464 5463 5461 5459 5456 5454 5453 5452 5450 5447 5445 5445 5444 5445 5446 5444 5447 5449 5449 5450 5449 5448 5446 5445 5443 5442 5440 5438 5436 5434 5432
5468 5467 5465 5465 5463 5462 5460 5459 5459 5459 5457 5455 5453 5452 5452 5450 5447 5445 5444 5443 5446 5446 5443 5443 5445 5445 5446 5446 5444 5442 5441 5439 5437 5435 5433 5431 5429 5427
5464 5463 5461 5460 5460 5459 5457 5455 5455 5455 5453 5454 5453 5453 5452 5450 5448 5445 5444 5443 5443 5444 5443 5441 5442 5441 5444 5444 5441 5440 5437 5435 5433 5431 5428 5426 5424 5422
5458 5458 5458 5458 5458 5457 5456 5453 5451 5450 5449 5449 5450 5450 5451 5450 5448 5446 5444 5443 5443 5443 5442 5440 5440 5439 5437 5438 5439 5437 5434 5431 5429 5427 5424 5422 5419 5416
5453 5453 5454 5455 5455 5455 5454 5452 5451 5450 5449 5448 5448 5448 5448 5448 5447 5447 5446 5444 5443 5443 5442 5439 5438 5437 5436 5436 5436 5435 5433 5429 5426 5424 5421 5418 5415 5412
5450 5451 5451 5452 5452 5451 5450 5449 5449 5447 5446 5446 5445 5445 5444 5444 5446 5447 5447 5446 5446 5445 5443 5441 5438 5437 5434 5434 5433 5432 5430 5428 5425 5422 5419 5416 5412 5409
5448 5449 5449 5448 5448 5447 5446 5445 5444 5442 5441 5441 5441 5442 5443 5445 5445 5445 5445 5445 5445 5446 5444 5442 5440 5438 5437 5435 5432 5431 5429 5426 5424 5421 5418 5414 5410 5407
5445 5445 5444 5443 5442 5440 5440 5440 5439 5439 5439 5438 5439 5440 5442 5443 5444 5443 5443 5443 5444 5444 5444 5443 5441 5439 5437 5435 5435 5433 5429 5427 5423 5419 5418 5415 5411 5407
5440 5438 5436 5435 5434 5433 5433 5434 5434 5434 5434 5434 5436 5437 5438 5440 5442 5442 5442 5442 5443 5443 5442 5442 5441 5442 5441 5439 5433 5433 5431 5428 5425 5421 5418 5416 5414 5409
5436 5433 5431 5429 5428 5428 5428 5428 5428 5428 5429 5431 5433 5434 5436 5438 5440 5441 5441 5442 5443 5443 5443 5442 5441 5442 5444 5444 5441 5433 5432 5430 5427 5424 5420 5417 5414 5411
5430 5428 5427 5425 5424 5424 5424 5424 5425 5426 5427 5429 5430 5431 5433 5435 5438 5439 5440 5441 5442 5443 5444 5444 5443 5442 5442 5441 5440 5437 5433 5431 5429 5427 5424 5420 5417 5414
5427 5425 5423 5422 5421 5421 5421 5421 5422 5423 5424 5426 5428 5429 5431 5433 5436 5438 5439 5440 5441 5443 5445 5446 5444 5441 5440 5439 5441 5441 5438 5434 5431 5428 5427 5425 5424 5421
5425 5423 5421 5420 5419 5419 5419 5419 5421 5422 5423 5424 5426 5427 5429 5432 5434 5437 5439 5441 5442 5443 5444 5446 5445 5445 5445 5445 5445 5443 5442 5439 5436 5432 5429 5427 5425 5425
5424 5422 5420 5419 5418 5417 5418 5418 5419 5421 5421 5422 5424 5426 5429 5432 5434 5437 5439 5442 5444 5446 5447 5448 5449 5448 5448 5446 5446 5446 5444 5443 5441 5439 5437 5433 5429 5426